Wind_Speed
3 3 3 4 5 5 7 8 8 8 8 7 7 7 7 7 7 7 8 7 7 7 7 7 7 6 6 6 6 6 6 6 7 7 8 8 8 9 9 9 9 9 10
4 4 4 5 5 5 6 7 7 7 7 6 6 6 6 6 6 7 7 7 7 7 7 7 7 6 6 6 5 6 6 6 6 6 7 7 7 7 8 8 8 9 9
5 5 5 6 5 5 6 6 6 6 6 5 5 5 5 6 6 6 6 7 7 7 7 6 6 6 6 5 5 5 5 5 5 5 5 6 6 6 7 7 7 8 8
7 7 6 6 6 6 6 6 6 6 5 4 4 4 5 5 5 6 6 7 7 7 7 6 6 6 5 5 4 4 4 4 4 4 4 4 4 5 5 6 6 7 7
8 8 8 8 7 7 6 6 5 5 4 3 3 4 4 5 5 6 7 7 7 7 6 6 6 5 5 4 4 3 3 3 3 3 3 3 3 3 4 5 5 6 6
8 9 9 9 8 8 7 7 6 5 3 2 2 3 3 4 5 6 7 7 7 7 6 6 6 5 5 4 4 3 2 2 2 2 2 2 2 2 3 4 4 4 5
9 10 11 10 10 9 8 8 7 5 3 2 1 1 2 4 5 6 7 7 7 7 7 6 6 6 5 4 3 3 2 1 1 1 1 1 1 1 2 2 3 3 3
11 11 11 11 11 10 10 9 7 6 4 3 1 1 2 3 5 6 7 7 7 8 7 6 6 6 5 5 4 3 2 1 1 1 1 0 0 1 0 1 2 2 2
12 13 13 13 13 12 11 10 8 7 6 4 3 2 3 3 5 6 7 7 7 8 7 6 6 6 5 5 5 4 3 2 2 1 2 2 1 1 2 2 1 2 2
13 14 14 14 14 13 12 11 10 8 7 6 5 4 4 4 5 5 6 7 8 8 7 6 6 6 6 5 5 4 3 3 3 2 2 2 2 2 2 3 3 3 3
12 13 15 15 15 14 14 12 11 10 9 8 7 6 5 5 6 6 7 7 8 7 7 6 6 6 5 5 5 4 4 4 3 3 3 3 3 3 3 3 4 4 4
13 15 16 17 16 15 15 14 12 11 10 9 8 7 7 7 6 6 7 7 7 6 6 6 5 5 5 5 5 5 4 4 4 4 4 4 4 4 4 4 5 5 6
14 16 17 18 18 17 17 16 14 12 11 11 10 9 8 7 6 6 6 6 6 6 5 5 4 4 4 4 4 4 4 4 4 4 4 5 5 4 4 5 5 6 6
15 17 18 18 18 18 18 17 16 14 13 12 10 9 8 8 6 6 6 5 5 5 5 4 3 3 4 4 4 4 4 4 3 4 4 5 5 6 6 6 6 7 7
15 17 18 18 19 19 19 18 17 16 15 13 11 10 9 8 7 6 6 6 5 5 4 3 3 3 3 4 3 3 4 4 4 4 4 4 5 6 6 7 7 7 8
15 17 18 18 18 20 20 20 18 18 16 13 12 10 10 9 8 7 7 6 5 3 3 3 3 3 3 4 4 3 4 4 4 5 5 4 5 5 6 6 7 8 9
13 14 18 20 20 20 21 20 19 17 16 14 13 11 10 9 8 7 6 6 4 3 3 3 3 3 3 3 3 3 3 4 4 4 5 4 5 5 6 6 7 8 9
11 13 16 19 19 21 21 20 20 18 16 15 13 11 10 9 8 8 7 6 5 4 3 3 3 2 2 2 2 2 2 2 2 3 4 4 4 5 5 6 6 7 9
11 13 15 19 20 21 21 21 20 18 16 15 14 12 10 9 8 8 8 7 5 4 4 3 2 2 2 1 1 1 1 1 1 2 2 3 3 4 5 5 6 7 8
10 13 15 19 20 21 21 20 20 18 17 16 15 12 11 10 9 8 8 7 6 5 4 3 2 2 1 1 1 0 0 1 1 1 1 2 3 4 5 6 6 7 8
9 12 16 19 20 21 20 21 20 18 18 16 15 13 11 11 10 9 8 7 6 5 4 3 2 2 2 1 1 1 0 1 1 1 2 2 2 3 4 5 6 7 8
9 12 15 18 19 21 20 21 20 18 19 18 16 15 13 12 11 10 9 8 7 5 4 4 3 2 2 1 1 1 1 1 2 3 3 3 3 3 4 4 5 5 6
8 11 15 16 18 20 21 22 21 19 20 18 16 16 14 13 13 11 10 9 7 6 5 4 3 3 2 2 1 2 2 2 2 3 3 3 3 4 4 5 6 6 7
7 9 12 16 17 19 21 21 20 20 20 20 18 16 16 15 14 12 11 10 8 7 5 5 4 3 3 2 2 3 3 3 3 4 4 5 5 5 6 6 7 7 8
6 8 10 15 18 21 21 21 21 20 20 20 19 18 17 16 14 13 12 11 9 8 7 6 5 5 4 4 3 4 4 5 5 5 6 6 7 7 7 7 8 8 9
5 6 9 14 17 18 20 21 21 20 19 20 19 19 18 16 15 14 13 11 10 8 8 7 6 6 5 5 5 5 5 6 7 7 7 8 8 9 9 9 10 10 11
Wind_Direction
186 177 196 177 160 139 127 117 108 98 88 80 72 64 55 48 46 45 40 38 39 41 42 44 45 48 50 54 60 64 69 75 80 81 80 79 79 79 80 84 86 88 91
221 211 210 197 173 153 138 128 118 107 96 87 77 67 54 45 40 38 34 32 31 33 36 38 38 40 42 46 53 59 64 69 77 81 80 78 78 78 80 85 87 89 92
233 223 215 207 186 169 153 139 128 116 105 92 79 68 55 44 36 31 27 25 24 25 27 29 31 32 35 38 44 51 59 66 72 81 82 81 79 78 79 84 87 89 93
245 231 221 214 199 182 168 156 141 126 113 96 76 64 51 40 29 20 17 15 15 15 16 18 21 23 26 29 32 39 48 58 66 75 81 84 83 82 83 85 87 90 94
247 233 225 220 206 194 184 172 157 141 126 106 75 58 45 33 23 14 8 6 5 6 9 10 13 16 16 17 19 23 29 44 56 62 74 80 87 89 87 88 89 90 93
240 232 227 223 212 205 195 185 176 163 152 132 79 52 34 21 16 6 1 359 360 360 2 3 3 2 1 360 359 3 7 21 34 49 64 71 87 95 92 90 89 91 94
239 235 231 227 219 213 206 199 192 187 181 175 117 35 11 0 358 354 352 352 353 352 350 351 351 348 346 344 342 344 343 336 338 343 38 59 88 103 97 92 97 101 102
239 240 235 228 223 219 214 207 202 204 200 200 218 294 331 337 341 340 341 342 344 346 343 341 338 338 337 331 328 323 321 307 309 309 309 319 268 225 199 137 122 123 124
243 242 237 228 224 220 215 210 210 210 211 216 230 259 286 309 323 332 335 334 333 335 334 331 329 329 328 322 317 310 300 294 283 299 303 270 251 246 236 213 189 170 159
247 242 234 226 220 218 214 212 213 216 219 224 237 255 271 292 308 320 329 331 331 329 326 323 322 322 320 317 310 302 292 284 279 273 273 260 243 248 249 238 227 216 201
248 240 229 225 220 216 214 214 218 220 224 229 239 253 266 285 297 309 318 324 327 326 323 320 317 317 314 311 309 301 287 280 272 266 261 248 246 253 251 246 238 232 221
249 236 224 223 220 215 214 215 218 221 226 232 241 251 264 278 288 301 310 316 322 324 327 325 319 313 307 302 302 301 287 273 269 266 260 252 248 252 251 242 240 237 233
246 233 226 222 222 220 218 215 217 221 226 233 242 249 257 266 276 291 299 308 319 326 334 334 334 321 313 308 308 304 285 270 266 267 260 254 246 246 247 240 238 241 241
244 234 227 220 220 220 219 216 215 221 225 231 237 239 246 254 265 283 286 295 306 313 323 328 336 328 315 306 304 296 285 274 267 269 266 259 253 252 252 250 245 244 246
241 232 224 220 216 216 216 218 216 220 222 226 232 237 241 246 257 269 276 285 294 305 313 319 326 322 311 299 300 299 285 268 265 275 272 274 266 260 254 256 254 250 252
241 235 225 219 214 213 213 214 215 219 223 225 230 238 239 243 252 260 271 271 279 293 303 304 313 320 309 304 299 295 281 268 267 264 266 272 270 261 256 256 254 252 253
250 241 226 217 214 213 211 212 212 217 220 225 231 235 239 241 245 250 258 258 259 264 278 287 302 320 319 317 303 290 280 275 269 258 261 266 265 262 261 262 259 256 256
249 235 223 216 215 211 212 213 211 213 215 221 227 231 234 238 240 243 242 237 237 246 261 278 295 316 333 340 330 304 288 284 271 258 266 267 268 270 269 273 271 266 266
243 227 218 214 212 210 212 210 208 212 216 219 223 226 228 230 234 234 229 227 229 240 251 267 282 314 328 339 339 307 281 295 293 279 268 264 267 272 274 277 274 274 274
245 223 217 216 215 211 210 206 206 211 213 215 217 218 218 223 227 225 224 227 227 231 241 247 263 289 294 316 348 23 226 292 306 298 283 272 271 278 281 278 278 277 277
246 223 216 211 209 205 205 207 208 209 207 206 209 212 216 217 217 216 219 223 220 222 231 238 246 267 277 296 354 25 340 299 289 282 284 288 294 290 286 286 284 283 280
245 221 212 208 207 205 207 206 204 205 204 203 209 210 212 210 208 209 213 216 216 217 225 228 233 244 260 284 314 330 324 287 278 287 287 290 292 296 301 303 300 296 291
250 227 209 208 205 203 205 202 203 205 204 205 207 209 208 207 205 208 211 212 210 210 216 225 234 237 240 257 283 305 315 308 292 297 298 295 292 292 297 300 302 300 296
251 222 207 202 200 196 196 200 202 202 204 205 203 207 205 204 205 208 210 210 209 210 217 228 239 247 252 268 284 296 298 299 298 294 296 296 299 300 300 301 301 299 298
257 221 209 201 196 194 196 200 200 200 203 204 206 206 205 204 208 209 208 211 213 215 223 235 240 244 251 264 279 292 299 300 300 298 297 298 299 299 300 301 302 302 302
252 213 203 197 192 193 195 194 198 204 207 205 205 204 205 207 209 206 208 213 216 221 229 239 241 242 248 260 273 285 294 296 295 294 293 293 293 294 294 296 299 300 299
Height
5881 5881 5882 5883 5883 5883 5883 5884 5885 5886 5887 5888 5889 5890 5890 5891 5891 5892 5892 5892 5892 5892 5892 5892 5892 5892 5892 5892 5892 5892 5893 5893 5893 5893 5893 5893 5894 5893 5893 5893 5893 5893 5893
5880 5881 5882 5883 5883 5883 5883 5884 5885 5886 5887 5888 5889 5890 5891 5892 5892 5892 5893 5893 5893 5893 5892 5892 5892 5892 5892 5893 5893 5893 5893 5893 5894 5894 5894 5894 5895 5895 5895 5895 5895 5895 5895
5879 5880 5881 5882 5882 5883 5883 5884 5885 5886 5887 5888 5889 5890 5891 5892 5892 5893 5893 5893 5893 5893 5892 5892 5892 5893 5893 5893 5893 5893 5894 5894 5894 5894 5895 5895 5895 5896 5896 5896 5896 5896 5896
5878 5879 5880 5881 5882 5882 5883 5884 5885 5886 5887 5888 5889 5890 5891 5892 5892 5893 5893 5893 5893 5893 5893 5892 5893 5893 5893 5894 5894 5894 5894 5894 5895 5895 5895 5896 5896 5896 5897 5897 5897 5897 5897
5877 5878 5879 5880 5881 5882 5883 5884 5885 5886 5887 5888 5889 5890 5891 5892 5892 5892 5893 5893 5893 5893 5893 5892 5893 5893 5893 5894 5894 5894 5894 5895 5895 5895 5896 5896 5896 5897 5897 5897 5897 5898 5898
5875 5876 5877 5878 5879 5881 5882 5883 5884 5885 5887 5888 5889 5890 5891 5891 5892 5892 5892 5893 5893 5893 5892 5893 5893 5893 5893 5894 5894 5894 5894 5895 5895 5895 5896 5896 5896 5897 5897 5898 5898 5898 5898
5873 5874 5876 5877 5878 5880 5881 5882 5884 5885 5886 5887 5889 5889 5890 5891 5891 5891 5892 5892 5892 5892 5892 5892 5893 5893 5893 5893 5893 5894 5894 5894 5895 5895 5896 5896 5896 5897 5897 5898 5898 5898 5899
5872 5873 5874 5875 5876 5878 5880 5881 5883 5884 5886 5887 5888 5889 5889 5890 5890 5891 5891 5892 5892 5892 5892 5892 5892 5892 5892 5892 5893 5893 5893 5893 5894 5895 5895 5895 5896 5896 5897 5897 5898 5898 5899
5869 5871 5871 5873 5875 5877 5878 5880 5882 5883 5885 5886 5887 5888 5888 5889 5890 5890 5890 5891 5891 5891 5891 5891 5891 5891 5891 5891 5892 5892 5892 5893 5893 5894 5895 5895 5895 5896 5896 5897 5898 5898 5899
5867 5867 5868 5870 5872 5875 5877 5879 5880 5882 5884 5885 5886 5887 5888 5888 5889 5889 5890 5890 5890 5890 5890 5890 5890 5890 5890 5890 5891 5891 5891 5892 5893 5893 5894 5894 5895 5895 5896 5896 5897 5898 5899
5863 5864 5865 5867 5870 5872 5875 5877 5879 5881 5882 5884 5885 5886 5887 5887 5888 5888 5889 5889 5889 5889 5889 5889 5889 5889 5889 5889 5890 5890 5890 5891 5892 5892 5893 5893 5894 5895 5895 5896 5897 5897 5898
5859 5860 5862 5865 5867 5869 5872 5875 5877 5879 5881 5882 5883 5885 5885 5886 5887 5887 5888 5888 5888 5888 5888 5888 5888 5889 5889 5889 5889 5889 5889 5890 5890 5891 5892 5892 5893 5893 5894 5895 5896 5896 5897
5855 5857 5859 5862 5864 5867 5869 5872 5875 5877 5879 5880 5882 5883 5884 5885 5885 5886 5886 5887 5887 5887 5887 5887 5887 5888 5888 5888 5888 5888 5888 5889 5889 5890 5891 5891 5892 5892 5893 5894 5894 5895 5896
5851 5853 5856 5858 5861 5864 5866 5869 5872 5874 5876 5878 5880 5881 5882 5883 5884 5885 5885 5885 5886 5886 5887 5887 5887 5887 5887 5887 5887 5887 5887 5888 5888 5889 5889 5890 5890 5891 5892 5892 5893 5894 5895
5846 5847 5850 5854 5857 5860 5864 5866 5869 5872 5874 5876 5878 5879 5880 5881 5882 5883 5884 5884 5885 5885 5886 5886 5886 5887 5887 5887 5886 5886 5886 5887 5887 5888 5888 5888 5889 5890 5890 5891 5891 5892 5893
5842 5844 5846 5850 5853 5857 5860 5863 5866 5869 5872 5874 5876 5877 5879 5880 5881 5882 5883 5883 5884 5884 5885 5885 5885 5886 5886 5886 5886 5885 5886 5886 5886 5886 5887 5887 5887 5888 5888 5889 5890 5890 5891
5839 5841 5842 5845 5849 5853 5857 5860 5864 5867 5870 5872 5873 5875 5877 5878 5879 5880 5881 5882 5883 5883 5884 5884 5885 5885 5885 5885 5884 5884 5884 5885 5885 5885 5886 5886 5886 5887 5887 5887 5888 5888 5889
5835 5837 5839 5842 5846 5850 5853 5857 5860 5864 5867 5869 5871 5873 5875 5877 5878 5879 5880 5881 5882 5882 5883 5883 5884 5884 5884 5884 5883 5884 5884 5884 5884 5884 5885 5885 5885 5885 5886 5886 5886 5886 5887
5832 5834 5836 5840 5843 5847 5850 5853 5858 5861 5864 5867 5869 5871 5873 5875 5876 5878 5879 5880 5881 5882 5882 5883 5883 5883 5883 5883 5883 5883 5883 5883 5883 5883 5884 5884 5884 5884 5884 5884 5884 5885 5885
5829 5830 5832 5836 5839 5843 5847 5851 5855 5858 5861 5864 5867 5869 5871 5873 5875 5876 5878 5879 5880 5881 5881 5882 5882 5882 5882 5882 5882 5883 5883 5883 5883 5883 5883 5883 5883 5883 5883 5883 5883 5883 5883
5826 5827 5829 5832 5836 5839 5843 5848 5852 5855 5859 5862 5865 5867 5869 5871 5873 5875 5876 5878 5879 5880 5880 5881 5881 5881 5882 5882 5882 5882 5882 5883 5883 5883 5882 5882 5882 5882 5881 5881 5881 5881 5881
5823 5824 5826 5828 5832 5836 5840 5844 5848 5852 5856 5859 5862 5865 5867 5870 5872 5874 5875 5877 5878 5879 5880 5880 5881 5881 5882 5882 5882 5882 5882 5883 5882 5882 5882 5882 5881 5881 5880 5880 5880 5880 5880
5821 5821 5823 5825 5828 5833 5837 5841 5845 5849 5853 5856 5860 5863 5865 5868 5870 5872 5874 5875 5877 5878 5879 5880 5880 5881 5881 5881 5881 5882 5882 5881 5881 5881 5881 5881 5880 5880 5879 5879 5879 5878 5878
5820 5820 5821 5823 5826 5830 5835 5839 5843 5846 5851 5854 5858 5861 5864 5866 5869 5871 5873 5874 5876 5877 5878 5879 5879 5880 5880 5880 5881 5881 5881 5881 5881 5881 5880 5880 5879 5879 5878 5878 5877 5877 5876
5819 5819 5820 5822 5825 5829 5833 5837 5840 5844 5848 5851 5855 5858 5861 5864 5867 5869 5871 5873 5874 5876 5877 5878 5878 5879 5879 5880 5880 5880 5880 5880 5879 5879 5879 5879 5878 5877 5877 5876 5876 5875 5875
5818 5818 5819 5820 5824 5827 5831 5834 5838 5841 5845 5849 5852 5856 5859 5862 5865 5867 5869 5871 5873 5874 5875 5876 5877 5878 5878 5879 5879 5879 5879 5878 5878 5878 5877 5877 5876 5876 5875 5874 5874 5873 5872